Weather History for Rolla, ND

Change the Weather History Date:

Sunday, December 2, 2012

  Actual Average (KRUG) Record (KRUG)
Temperature  
Mean Temperature 28 °F -  
Max Temperature 32 °F 23 °F 50 °F (1965)
Min Temperature 23 °F 6 °F -20 °F (1985)
Degree Days  
Heating Degree Days 38    
Moisture  
Dew Point 29 °F    
Average Humidity 100    
Maximum Humidity 100    
Minimum Humidity 100    
Precipitation  
Precipitation 0.00 in - - ()
Sea Level Pressure  
Sea Level Pressure 29.59 in    
Wind  
Wind Speed 9 mph (South)    
Max Wind Speed 18 mph    
Max Gust Speed 26 mph    
Visibility 2 miles    
Events Fog , Rain    
Averages and records for this station are not official NWS values.
T = Trace of Precipitation, MM = Missing Value Source: NWS Daily Summary

Daily Weather History Graph

Daily Weather History Graph

Search for Another Location

Airport:

Trip Planner

Search our weather history database for the weather conditions in past years. The results will help you decide how hot, cold, wet, or windy it might be!

Date:

Astronomy

Dec. 02, 2012 Rise Set
Actual Time 8:12 AM CST 4:43 PM CST
Civil Twilight 7:36 AM CST 5:19 PM CST
Nautical Twilight 6:56 AM CST 5:59 PM CST
Astronomical Twilight 6:18 AM CST 6:37 PM CST
Moon 8:41 PM CST (12/2) 10:55 AM CST (12/2)
Length of Visible Light 9h 43m
Length of Day
8h 30m
Waning Gibbous, 85% of the Moon is Illuminated
Dec 2
Waning Gibbous
Dec 6
Last Quarter
Dec 13
New
Dec 19
First Quarter
Dec 28
Full

Hourly Weather History & Observations

Time (CST) Temp. Windchill Dew Point Humidity Pressure Visibility Wind Dir Wind Speed Gust Speed Precip Events Conditions
12:15 AM 23.0 °F 15.8 °F 23.0 °F 100% 29.82 in 0.2 mi ESE 5.8 mph - N/A Fog Light Freezing Fog
12:35 AM 23.0 °F 14.7 °F 23.0 °F 100% 29.81 in 0.2 mi SSE 6.9 mph - N/A Fog Light Freezing Fog
12:55 AM 23.0 °F 14.7 °F 23.0 °F 100% 29.82 in 0.2 mi SSE 6.9 mph - N/A Fog Light Freezing Fog
1:15 AM 23.0 °F 13.9 °F 23.0 °F 100% 29.80 in 0.2 mi SSE 8.1 mph - N/A Fog Light Freezing Fog
1:35 AM 23.0 °F 14.7 °F 23.0 °F 100% 29.80 in 0.2 mi South 6.9 mph - N/A Fog Light Freezing Fog
1:55 AM 23.0 °F 13.9 °F 23.0 °F 100% 29.79 in 0.5 mi SSE 8.1 mph - N/A Fog Light Freezing Fog
2:15 AM 23.0 °F 14.7 °F 23.0 °F 100% 29.79 in 0.5 mi SSE 6.9 mph - N/A Fog Light Freezing Fog
2:35 AM 23.0 °F 13.9 °F 23.0 °F 100% 29.78 in 0.2 mi SE 8.1 mph - N/A Fog Light Freezing Fog
2:55 AM 23.0 °F 12.4 °F 23.0 °F 100% 29.79 in 0.2 mi SSE 10.4 mph - N/A Fog Light Freezing Fog
3:15 AM 23.0 °F 14.7 °F 23.0 °F 100% 29.78 in 0.2 mi SSE 6.9 mph - N/A Fog Light Freezing Fog
3:35 AM 24.8 °F 16.1 °F 24.8 °F 100% 29.77 in 0.2 mi SSE 8.1 mph - N/A Fog Light Freezing Fog
3:55 AM 24.8 °F 16.1 °F 24.8 °F 100% 29.77 in 0.2 mi SSE 8.1 mph - N/A Fog Light Freezing Fog
4:15 AM 24.8 °F 16.9 °F 24.8 °F 100% 29.75 in 0.2 mi SSE 6.9 mph - N/A Fog Light Freezing Fog
4:35 AM 24.8 °F 12.9 °F 24.8 °F 100% 29.74 in 0.2 mi South 13.8 mph 17.3 mph N/A Fog Light Freezing Fog
4:55 AM 26.6 °F 18.2 °F 26.6 °F 100% 29.74 in 0.2 mi South 8.1 mph - N/A Fog Light Freezing Fog
5:15 AM 26.6 °F - 26.6 °F 100% 29.74 in 0.2 mi North - - N/A Fog Light Freezing Fog
5:35 AM 28.4 °F 19.7 °F 28.4 °F 100% 29.73 in 1.8 mi South 9.2 mph 26.5 mph N/A   Overcast
6:15 AM 28.4 °F 16.6 °F 28.4 °F 100% 29.72 in 0.2 mi South 16.1 mph 20.7 mph N/A Fog Light Freezing Fog
6:35 AM 28.4 °F 16.2 °F 28.4 °F 100% 29.71 in 0.2 mi South 17.3 mph 20.7 mph N/A Fog Light Freezing Fog
6:55 AM 28.4 °F 16.2 °F 28.4 °F 100% 29.69 in 0.2 mi South 17.3 mph - N/A Fog Light Freezing Fog
7:15 AM 28.4 °F 17.5 °F 28.4 °F 100% 29.70 in 0.2 mi South 13.8 mph - N/A Fog Light Freezing Fog
7:35 AM 28.4 °F 17.0 °F 28.4 °F 100% 29.69 in 0.2 mi South 15.0 mph 19.6 mph N/A Fog Light Freezing Fog
7:55 AM 28.4 °F 17.0 °F 28.4 °F 100% 29.70 in 0.2 mi South 15.0 mph - N/A Fog Light Freezing Fog
8:15 AM 28.4 °F 16.2 °F 28.4 °F 100% 29.68 in 0.2 mi South 17.3 mph - N/A Fog Light Freezing Fog
8:35 AM 30.2 °F 18.9 °F 30.2 °F 100% 29.67 in 0.2 mi South 16.1 mph - N/A Fog Light Freezing Fog
8:55 AM 30.2 °F 18.1 °F 30.2 °F 100% 29.67 in 0.2 mi SSW 18.4 mph 24.2 mph N/A Fog Light Freezing Fog
9:15 AM 32.0 °F 20.8 °F 32.0 °F 100% 29.67 in 0.2 mi SSW 17.3 mph - N/A Fog Light Freezing Fog
9:35 AM 32.0 °F 21.2 °F 32.0 °F 100% 29.67 in 0.2 mi SSW 16.1 mph 20.7 mph N/A Fog Light Freezing Fog
9:55 AM 32.0 °F 20.5 °F 32.0 °F 100% 29.66 in 0.2 mi SSW 18.4 mph 21.9 mph N/A Fog Light Freezing Fog
10:15 AM 32.0 °F 23.0 °F 32.0 °F 100% 29.66 in 0.2 mi SSW 11.5 mph - N/A Fog Light Freezing Fog
10:35 AM 32.0 °F 22.1 °F 32.0 °F 100% 29.66 in 0.2 mi SSW 13.8 mph - N/A Fog Light Freezing Fog
10:55 AM 32.0 °F 23.0 °F 32.0 °F 100% 29.65 in 0.2 mi SSW 11.5 mph - N/A Fog Light Freezing Fog
11:15 AM 32.0 °F 21.2 °F 32.0 °F 100% 29.65 in 0.2 mi SSW 16.1 mph - N/A Fog Light Freezing Fog
11:35 AM 32.0 °F 22.1 °F 32.0 °F 100% 29.64 in 0.2 mi SSW 13.8 mph - N/A Fog Light Freezing Fog
11:55 AM 32.0 °F 22.1 °F 32.0 °F 100% 29.63 in 0.2 mi SSW 13.8 mph - N/A Fog Light Freezing Fog
12:15 PM 32.0 °F 23.0 °F 32.0 °F 100% 29.62 in 0.2 mi SSW 11.5 mph - N/A Fog Light Freezing Fog
12:35 PM 32.0 °F 22.1 °F 32.0 °F 100% 29.61 in 0.5 mi SSW 13.8 mph - N/A Fog Light Freezing Fog
12:55 PM 32.0 °F 24.8 °F 32.0 °F 100% 29.60 in 1.0 mi SSW 8.1 mph - N/A   Overcast
1:15 PM 32.0 °F 25.6 °F 32.0 °F 100% 29.60 in 8.0 mi SW 6.9 mph - N/A   Scattered Clouds
1:35 PM 32.0 °F 23.6 °F 32.0 °F 100% 29.58 in 9.0 mi South 10.4 mph - N/A   Clear
1:55 PM 32.0 °F 24.2 °F 32.0 °F 100% 29.57 in 10.0 mi South 9.2 mph - N/A Rain Light Rain
2:15 PM 32.0 °F 24.2 °F 32.0 °F 100% 29.56 in 10.0 mi South 9.2 mph - N/A Rain Light Rain
2:35 PM 32.0 °F 24.2 °F 32.0 °F 100% 29.55 in 10.0 mi SSE 9.2 mph - N/A   Clear
3:15 PM 32.0 °F 24.2 °F 32.0 °F 100% 29.53 in 8.0 mi SSE 9.2 mph - N/A   Partly Cloudy
3:35 PM 32.0 °F 25.6 °F 32.0 °F 100% 29.52 in 5.0 mi SSE 6.9 mph - N/A Rain Light Rain
3:55 PM 32.0 °F 25.6 °F 32.0 °F 100% 29.51 in 3.0 mi SSE 6.9 mph - N/A   Mostly Cloudy
4:15 PM 32.0 °F 24.8 °F 32.0 °F 100% 29.51 in 3.0 mi SSE 8.1 mph - N/A Rain Light Rain
4:35 PM 32.0 °F 24.8 °F 32.0 °F 100% 29.50 in 2.5 mi SSE 8.1 mph - N/A   Overcast
4:55 PM 32.0 °F 26.4 °F 32.0 °F 100% 29.49 in 2.5 mi SE 5.8 mph - N/A   Overcast
5:15 PM 32.0 °F 26.4 °F 32.0 °F 100% 29.49 in 2.0 mi SE 5.8 mph - N/A   Overcast
5:35 PM 32.0 °F 28.7 °F 32.0 °F 100% 29.48 in 1.5 mi SE 3.5 mph - N/A   Overcast
5:55 PM 32.0 °F 27.5 °F 32.0 °F 100% 29.47 in 2.0 mi SE 4.6 mph - N/A   Overcast
6:15 PM 32.0 °F 28.7 °F 32.0 °F 100% 29.45 in 2.0 mi East 3.5 mph - N/A   Overcast
6:35 PM 32.0 °F 28.7 °F 32.0 °F 100% 29.46 in 2.0 mi SSE 3.5 mph - N/A   Overcast
6:55 PM 32.0 °F 28.7 °F 32.0 °F 100% 29.46 in 2.0 mi SSE 3.5 mph - N/A   Overcast
7:15 PM 32.0 °F 27.5 °F 32.0 °F 100% 29.45 in 2.0 mi SE 4.6 mph - N/A   Scattered Clouds
7:35 PM 32.0 °F 26.4 °F 32.0 °F 100% 29.43 in 3.0 mi SE 5.8 mph - N/A   Clear
7:55 PM 32.0 °F 27.5 °F 32.0 °F 100% 29.42 in 3.0 mi SE 4.6 mph - N/A   Clear
8:15 PM 32.0 °F 25.6 °F 32.0 °F 100% 29.41 in 3.0 mi SE 6.9 mph - N/A   Scattered Clouds
8:35 PM 30.2 °F - 30.2 °F 100% 29.40 in 1.8 mi Calm Calm - N/A   Overcast
8:55 PM 30.2 °F - 30.2 °F 100% 29.38 in 0.5 mi Calm Calm - N/A Fog Light Freezing Fog
9:15 PM 30.2 °F 22.6 °F 30.2 °F 100% 29.35 in 0.2 mi SE 8.1 mph - N/A Fog Light Freezing Fog
9:35 PM 32.0 °F 27.5 °F 32.0 °F 100% 29.35 in 2.5 mi SE 4.6 mph - N/A   Scattered Clouds
9:55 PM 32.0 °F 27.5 °F 32.0 °F 100% 29.34 in 3.0 mi South 4.6 mph - N/A   Clear
10:15 PM 32.0 °F 26.4 °F 32.0 °F 100% 29.33 in 3.0 mi SSE 5.8 mph - N/A   Clear
10:35 PM 30.2 °F 25.4 °F 30.2 °F 100% 29.34 in 4.0 mi SSW 4.6 mph - N/A   Clear
10:55 PM 30.2 °F 24.3 °F 30.2 °F 100% 29.33 in 4.0 mi SSW 5.8 mph - N/A   Clear
11:15 PM 30.2 °F 24.3 °F 30.2 °F 100% 29.32 in 5.0 mi South 5.8 mph - N/A   Clear
11:35 PM 30.2 °F - 30.2 °F 100% 29.31 in 4.0 mi Calm Calm - N/A   Clear
11:55 PM 30.2 °F - 30.2 °F 100% 29.30 in 4.0 mi Calm Calm - N/A   Clear